This demonstration page uses our WeatherBlox Daily Observations layout. Learn more.

Left ArrowRight Arrow

Hourly Observations for May 13, 2022

Temp ( °F °C ) Dew Point ( °F °C ) Humidity (%) Winds ( mph kmh ) Pressure ( in mb ) Visibility ( mi km ) Precip ( " mm )
12:53 am 00:53 Cloudy 45 7.2 44 6.7 97 97 WNW 3 6 29.93 1014 10 16 0.00 0.00
1:53 am 01:53 Cloudy 45 7.2 43 6.1 93 93 WSW 3 6 29.91 1013 10 16 0.00 0.00
2:53 am 02:53 Mostly Clear 42 5.6 42 5.6 100 100 WSW 3 6 29.89 1012 10 16 0.00 0.00
3:53 am 03:53 Clear with Mist and Fog 42 5.6 41 5 96 96 Calm 29.88 1012 6 10 0.00 0.00
4:53 am 04:53 Partly Cloudy with Mist and Fog 42 5.6 41 5 96 96 Calm 29.88 1012 6 10 0.00 0.00
5:01 am 05:01 Partly Cloudy with Mist and Fog 39 3.9 39 3.9 100 100 Calm 29.91 1013 2 3 0.00 0.00
5:05 am 05:05 Mostly Clear with Mist and Fog 39 3.9 38 3.3 96 96 Calm 29.91 1013 1 1 0.00 0.00
5:17 am 05:17 Mostly Cloudy with Fog 38 3.3 38 3.3 100 100 Calm 29.92 1013 1 1 0.00 0.00
5:49 am 05:49 Mostly Cloudy with Fog 37 3 37 3 100 100 SW 9 15 29.92 1013 1 1 0.00 0.00
5:53 am 05:53 Mostly Cloudy with Mist and Fog 38 3.3 38 3.3 100 100 SW 10 17 29.88 1012 1 2 0.00 0.00
5:59 am 05:59 Mostly Cloudy with Fog 39 3.9 39 3.9 100 100 SW 9 15 29.91 1013 0 0 0.00 0.00
6:11 am 06:11 Mostly Cloudy with Mist and Fog 39 3.9 39 3.9 100 100 SW 10 17 29.91 1013 1 2 0.00 0.00
6:13 am 06:13 Mostly Cloudy with Mist and Fog 39 4 39 4 100 100 SW 10 17 29.91 1013 3 4 0.00 0.00
6:20 am 06:20 Partly Cloudy with Mist and Fog 39 3.9 39 3.9 100 100 SW 9 15 29.91 1013 5 8 0.00 0.00
6:35 am 06:35 Partly Cloudy with Mist and Fog 40 4.4 40 4.4 100 100 SW 9 15 29.90 1013 2 3 0.00 0.00
6:37 am 06:37 Mostly Cloudy with Mist and Fog 40 4.4 40 4.4 100 100 SW 8 13 29.89 1012 1 2 0.00 0.00
6:45 am 06:45 Mostly Cloudy with Mist and Fog 41 5 41 5 100 100 SW 8 13 29.89 1012 1 1 0.00 0.00
6:53 am 06:53 Mostly Cloudy with Mist and Fog 41 5 41 5 100 100 SW 8 13 29.87 1011 2 2 0.00 0.00
6:57 am 06:57 Mostly Cloudy with Mist and Fog 41 5 41 5 100 100 SW 7 11 29.89 1012 3 5 0.00 0.00
7:05 am 07:05 Partly Cloudy with Mist and Fog 42 5.6 42 5.6 100 100 SSW 5 7 29.88 1012 6 10 0.00 0.00
7:53 am 07:53 Sunny 46 7.8 45 7.2 96 96 SW 9 15 29.85 1011 10 16 0.00 0.00
8:53 am 08:53 Sunny 50 10 44 6.7 80 80 SW 12 19 29.83 1010 10 16 0.00 0.00
9:53 am 09:53 Partly Cloudy 52 11.1 43 6.1 72 72 SW 10 17 29.83 1010 10 16 0.00 0.00
10:53 am 10:53 Sunny 56 13.3 39 3.9 53 53 undefined N/A 29.81 1010 10 16 0.00 0.00
11:53 am 11:53 Cloudy with Light Rain 56 13.3 39 3.9 53 53 WSW 3 6 29.80 1009 10 16 0.00 0.00
12:53 pm 12:53 Cloudy 53 11.7 41 5 64 64 N 13 20 29.79 1009 10 16 0.04 1.02
1:53 pm 13:53 Cloudy 54 12.2 40 4.4 59 59 NNE 14 22 29.80 1009 10 16 0.00 0.00
2:40 pm 14:40 Cloudy with Light Rain 52 11 39 4 62 62 NW 16 26 29.82 1010 10 16 0.00 0.00
2:53 pm 14:53 Cloudy 54 12.2 36 2.2 51 51 WNW 23 37 29.86 1011 10 16 0.00 0.00
3:53 pm 15:53 Cloudy 50 10 30 -1.1 46 46 WNW 28 44 29.88 1012 10 16 0.00 0.00
4:53 pm 16:53 Cloudy 48 8.9 32 0 54 54 W 21 33 29.89 1012 10 16 0.00 0.00
5:53 pm 17:53 Cloudy 48 8.9 29 -1.7 48 48 W 21 33 29.91 1013 10 16 0.00 0.00
6:53 pm 18:53 Cloudy 49 9.4 24 -4.4 38 38 W 26 43 29.90 1013 10 16 0.00 0.00
7:53 pm 19:53 Cloudy 49 9.4 22 -5.6 35 35 WSW 31 50 29.85 1011 10 16 0.00 0.00
8:53 pm 20:53 Cloudy 50 10 20 -6.7 30 30 W 20 31 29.88 1012 10 16 0.00 0.00
9:53 pm 21:53 Cloudy 49 9.4 21 -6.1 33 33 WSW 21 33 29.89 1012 10 16 0.00 0.00
10:53 pm 22:53 Cloudy 47 8.3 20 -6.7 34 34 WSW 24 39 29.91 1013 10 16 0.00 0.00
11:53 pm 23:53 Cloudy 47 8.3 20 -6.7 34 34 W 26 43 29.92 1013 10 16 0.00 0.00

Powered by AerisWeather